EW6230 Weather Reports


time (UTC)temp
C
wind
direction
speed
KPH
gust
KPH
rain 1hr
cm
rain 24hr
cm
rain mn
cm
humidity
%
barometer
mb
20260510201544 18 323 0.0 1.6 0.00 0.00 0.00 62 1015.3
20260510200037 18 30 0.0 1.6 0.00 0.00 0.00 61 1015.4
20260510194534 18 333 0.0 1.6 0.00 0.00 0.00 61 1015.3
20260510193027 18 326 0.0 3.2 0.00 0.00 0.00 61 1015.3
20260510191523 17 354 0.0 4.8 0.00 0.00 0.00 61 1015.1
20260510190026 17 359 0.0 1.6 0.00 0.00 0.00 60 1015.1
20260510184515 16 352 0.0 1.6 0.00 0.00 0.00 59 1015.2
20260510183009 16 296 0.0 1.6 0.00 0.00 0.00 54 1015.2
20260510181505 16 345 0.0 1.6 0.00 0.00 0.00 59 1015.1
20260510180110 16 338 0.0 1.6 0.00 0.00 0.00 57 1014.9
20260510174556 15 260 0.0 1.6 0.00 0.00 0.00 56 1014.8
20260510173053 15 345 0.0 1.6 0.00 0.00 0.00 57 1014.6
20260510171550 15 210 0.0 1.6 0.00 0.00 0.00 55 1014.5
20260510170043 16 244 0.0 3.2 0.00 0.00 0.00 62 1014.7
20260510164542 16 212 0.0 0.0 0.00 0.00 0.00 59 1014.4
20260510163034 15 210 0.0 1.6 0.00 0.00 0.00 60 1014.2
20260510161529 13 283 0.0 0.0 0.00 0.00 0.00 44 1014.4
20260510160034 12 129 0.0 1.6 0.00 0.00 0.00 41 1014.5
20260510154527 12 144 0.0 1.6 0.00 0.00 0.00 21 1014.3
20260510153016 11 144 0.0 1.6 0.00 0.00 0.00 1 1014.1
20260510151511 11 89 0.0 0.0 0.00 0.00 0.00 1 1014.1
20260510150008 10 294 0.0 0.0 0.00 0.00 0.00 1 1014.2
20260510144503 10 294 0.0 0.0 0.00 0.00 0.00 1 1014.0
20260510143101 9 294 0.0 1.6 0.00 0.00 0.00 1 1014.2
20260510141555 9 175 0.0 0.0 0.00 0.00 0.00 1 1013.8
20260510140050 8 175 0.0 0.0 0.00 0.00 0.00 1 1014.0
20260510134546 8 176 0.0 0.0 0.00 0.00 0.00 1 1013.9
20260510133042 8 176 0.0 0.0 0.00 0.00 0.00 1 1013.9
20260510131536 8 175 0.0 0.0 0.00 0.00 0.00 1 1013.7
20260510130032 8 175 0.0 0.0 0.00 0.00 0.00 1 1013.6
20260510124529 8 175 0.0 0.0 0.00 0.00 0.00 1 1013.7
20260510123025 8 175 0.0 0.0 0.00 0.00 0.00 1 1013.5
20260510121519 8 175 0.0 0.0 0.00 0.00 0.00 1 1013.5
20260510120021 8 175 0.0 0.0 0.00 0.00 0.00 1 1013.3
20260510114516 8 175 0.0 0.0 0.00 0.00 0.00 1 1013.4
20260510113005 8 175 0.0 0.0 0.00 0.00 0.00 1 1013.6
20260510111606 8 175 0.0 0.0 0.00 0.00 0.00 1 1013.6
20260510110101 8 175 0.0 0.0 0.00 0.00 0.00 1 1013.3
20260510104551 8 175 0.0 0.0 0.00 0.00 0.00 1 1013.3
20260510103047 8 175 0.0 0.0 0.00 0.00 0.00 1 1013.3
20260510101544 8 175 0.0 0.0 0.00 0.00 0.00 1 1013.3
20260510100044 8 175 0.0 0.0 0.00 0.00 0.00 1 1013.2
20260510094544 8 175 0.0 0.0 0.00 0.00 0.00 1 1013.4
20260510093033 8 175 0.0 0.0 0.00 0.00 0.00 1 1013.3
20260510091532 8 175 0.0 0.0 0.00 0.00 0.00 1 1013.4
20260510090021 8 175 0.0 0.0 0.00 0.00 0.00 1 1013.4
20260510084519 8 175 0.0 0.0 0.00 0.00 0.00 1 1013.3
20260510083012 8 175 0.0 0.0 0.00 0.00 0.00 1 1013.2
20260510081507 9 175 0.0 0.0 0.00 0.00 0.00 1 1013.1
20260510080007 9 176 0.0 0.0 0.00 0.00 0.00 1 1013.1
20260510074559 9 176 0.0 0.0 0.00 0.00 0.00 1 1013.1
20260510073057 9 175 0.0 0.0 0.00 0.00 0.00 1 1013.1
20260510071550 9 175 0.0 0.0 0.00 0.00 0.00 1 1013.0
20260510070045 9 176 0.0 0.0 0.00 0.00 0.00 1 1012.9
20260510064541 9 176 0.0 0.0 0.00 0.00 0.00 1 1013.1
20260510063031 9 175 0.0 0.0 0.00 0.00 0.00 1 1013.1
20260510061527 9 176 0.0 0.0 0.00 0.00 0.00 1 1013.1
20260510060035 10 176 0.0 0.0 0.00 0.00 0.00 1 1012.9
20260510054525 10 175 0.0 0.0 0.00 0.00 0.00 1 1013.1
20260510053012 10 176 0.0 0.0 0.00 0.00 0.00 1 1013.1
20260510051512 10 175 0.0 0.0 0.00 0.00 0.00 6 1013.2
20260510050004 11 175 0.0 0.0 0.00 0.00 0.00 12 1013.4
20260510044618 11 175 0.0 0.0 0.00 0.00 0.00 16 1013.4
20260510043055 11 175 0.0 0.0 0.00 0.00 0.00 20 1013.4
20260510041550 11 175 0.0 0.0 0.00 0.00 0.00 28 1013.5
20260510040050 12 175 0.0 0.0 0.00 0.00 0.00 43 1013.4
20260510034542 13 175 0.0 0.0 0.00 0.00 0.00 52 1013.3
20260510033037 14 175 0.0 0.0 0.00 0.00 0.00 61 1013.1
20260510031533 15 175 0.0 0.0 0.00 0.00 0.00 62 1013.0
20260510030028 15 175 0.0 0.0 0.00 0.00 0.00 62 1013.0
20260510024523 15 175 0.0 0.0 0.00 0.00 0.00 61 1013.1
20260510023019 16 175 0.0 0.0 0.00 0.00 0.00 61 1013.2
20260510021514 16 175 0.0 0.0 0.00 0.00 0.00 61 1013.2
20260510020010 16 175 0.0 0.0 0.00 0.00 0.00 59 1013.4
20260510014509 17 175 0.0 0.0 0.00 0.00 0.00 60 1013.5
20260510013001 17 86 0.0 1.6 0.00 0.00 0.00 60 1013.6
20260510011557 17 86 0.0 1.6 0.00 0.00 0.00 59 1013.6
20260510010052 16 86 0.0 1.6 0.00 0.00 0.00 59 1013.8
20260510004550 16 89 0.0 0.0 0.00 0.00 0.00 59 1014.2
20260510003043 17 105 0.0 0.0 0.00 0.00 0.00 58 1014.4
20260510001538 17 105 0.0 0.0 0.00 0.00 0.00 59 1014.6
20260510000034 17 74 0.0 1.6 0.00 0.00 0.00 58 1014.8
20260509234538 17 74 0.0 1.6 0.00 0.00 0.00 59 1015.1
20260509233025 17 60 0.0 1.6 0.00 0.00 0.00 58 1015.2
20260509231520 18 60 0.0 1.6 0.00 0.00 0.00 59 1015.3
20260509230017 17 55 0.0 1.6 0.00 0.00 0.00 60 1015.6
20260509224513 17 73 0.0 1.6 0.00 0.00 0.00 61 1016.0
20260509223008 17 77 0.0 1.6 0.00 0.00 0.00 61 1016.0
20260509221504 17 81 0.0 0.0 0.00 0.00 0.00 60 1016.2
20260509220106 17 84 0.0 1.6 0.00 0.00 0.00 61 1016.5
20260509214559 17 84 0.0 1.6 0.00 0.00 0.00 61 1016.6
20260509213106 17 85 0.0 1.6 0.00 0.00 0.00 60 1016.9
20260509211545 17 91 0.0 1.6 0.00 0.00 0.00 61 1017.1
20260509210053 17 224 0.0 3.2 0.00 0.00 0.00 61 1017.0
20260509204540 17 50 0.0 4.8 0.00 0.00 0.00 61 1017.1
20260509203038 15 2 0.0 1.6 0.00 0.00 0.00 62 1017.4